EW4993 Weather Reports


Display with metric or nautical units.
time (UTC)temp
F
wind
direction
speed
MPH
gust
MPH
rain 1hr
in
rain 24hr
in
rain mn
in
humidity
%
barometer
mb
20210923121618 54 30 1.0 2.0 0.00 0.00 0.00 67 995.0
20210923120214 55 30 2.0 3.0 0.00 0.00 0.00 65 995.0
20210923114550 55 30 1.0 3.0 0.00 0.00 0.00 65 995.0
20210923113022 55 31 1.0 2.0 0.00 0.00 0.00 63 995.0
20210923111504 56 31 1.0 2.0 0.00 0.00 0.00 62 995.0
20210923110005 55 31 1.0 3.0 0.00 0.00 0.00 64 994.9
20210923104630 55 31 1.0 3.0 0.00 0.00 0.00 63 994.9
20210923103049 56 31 1.0 2.0 0.00 0.00 0.00 61 994.9
20210923101550 57 31 1.0 3.0 0.00 0.00 0.00 59 995.0
20210923100120 56 31 1.0 2.0 0.00 0.00 0.00 61 994.9
20210923094509 56 31 1.0 2.0 0.00 0.00 0.00 61 995.1
20210923093009 56 31 1.0 3.0 0.00 0.00 0.00 61 995.1
20210923091605 57 31 1.0 3.0 0.00 0.00 0.00 58 995.1
20210923090112 58 31 1.0 2.0 0.00 0.00 0.00 57 995.2
20210923084600 58 32 1.0 2.0 0.00 0.00 0.00 56 995.3
20210923083039 60 32 1.0 2.0 0.00 0.00 0.00 51 995.5
20210923081501 63 32 1.0 4.0 0.00 0.00 0.00 46 995.4
20210923080123 61 32 2.0 3.0 0.00 0.00 0.00 48 995.4
20210923074600 64 32 1.0 3.0 0.00 0.00 0.00 45 995.5
20210923073129 65 32 3.0 4.0 0.00 0.00 0.00 43 995.6
20210923071540 63 32 3.0 4.0 0.00 0.00 0.00 46 995.6
20210923070029 64 32 1.0 3.0 0.00 0.00 0.00 45 995.7
20210923064502 64 32 2.0 3.0 0.00 0.00 0.00 43 995.7
20210923063003 65 32 2.0 4.0 0.00 0.00 0.00 42 995.6
20210923061615 65 32 3.0 5.0 0.00 0.00 0.00 42 995.6
20210923060115 65 33 3.0 5.0 0.00 0.00 0.00 42 995.5
20210923054621 65 34 3.0 4.0 0.00 0.00 0.00 42 995.5
20210923054513 65 34 3.0 4.0 0.00 0.00 0.00 42 995.5
20210923053108 64 34 3.0 4.0 0.00 0.00 0.00 44 995.5
20210923051538 64 34 1.0 3.0 0.00 0.00 0.00 45 995.7
20210923050028 64 34 2.0 3.0 0.00 0.00 0.00 44 995.6
20210923044501 64 34 1.0 3.0 0.00 0.00 0.00 44 995.7
20210923043216 65 35 1.0 4.0 0.00 0.00 0.00 43 995.7
20210923041627 65 35 2.0 4.0 0.00 0.00 0.00 43 995.8
20210923040143 66 35 2.0 4.0 0.00 0.00 0.00 42 995.7
20210923034531 67 36 2.0 4.0 0.00 0.00 0.00 41 995.7
20210923033017 68 37 2.0 4.0 0.00 0.00 0.00 40 995.9
20210923031635 68 36 2.0 4.0 0.00 0.00 0.00 40 995.8
20210923030135 68 36 2.0 4.0 0.00 0.00 0.00 40 995.8
20210923024623 68 36 3.0 5.0 0.00 0.00 0.00 40 995.8
20210923023103 68 37 3.0 5.0 0.00 0.00 0.00 41 995.6
20210923021528 68 34 2.0 4.0 0.00 0.00 0.00 41 995.5
20210923020026 69 28 2.0 6.0 0.00 0.00 0.00 39 995.4
20210923014502 69 22 4.0 6.0 0.00 0.00 0.00 39 995.3
20210923013002 70 28 4.0 6.0 0.00 0.00 0.00 38 995.1
20210923011548 71 13 4.0 6.0 0.00 0.00 0.00 37 994.9
20210923010059 73 12 3.0 6.0 0.00 0.00 0.00 35 994.9
20210923004517 75 20 7.0 10.0 0.00 0.00 0.00 33 994.7
20210923003017 76 18 6.0 9.0 0.00 0.00 0.00 31 994.7
20210923001631 78 19 8.0 12.0 0.00 0.00 0.00 29 994.7
20210923000143 79 13 9.0 13.0 0.00 0.00 0.00 28 994.8
20210922234649 80 40 8.0 14.0 0.00 0.00 0.00 27 994.8
20210922233052 80 21 14.0 17.0 0.00 0.00 0.00 26 994.9
20210922231525 81 30 8.0 13.0 0.00 0.00 0.00 27 994.9
20210922230012 81 15 12.0 17.0 0.00 0.00 0.00 27 994.9
20210922224750 81 15 12.0 18.0 0.00 0.00 0.00 27 995.2
20210922223149 81 11 7.0 16.0 0.00 0.00 0.00 27 995.1
20210922221540 82 26 11.0 17.0 0.00 0.00 0.00 27 995.3
20210922220107 81 25 8.0 18.0 0.00 0.00 0.00 27 995.4
20210922214515 82 24 8.0 18.0 0.00 0.00 0.00 27 995.7
20210922213036 81 23 7.0 16.0 0.00 0.00 0.00 30 995.9
20210922211612 81 360 7.0 17.0 0.00 0.00 0.00 28 996.1
20210922210127 80 14 8.0 12.0 0.00 0.00 0.00 30 996.5
20210922204618 81 339 15.0 22.0 0.00 0.00 0.00 30 996.7
20210922203052 80 22 10.0 22.0 0.00 0.00 0.00 31 997.0
20210922201558 80 20 6.0 22.0 0.00 0.00 0.00 30 997.3
20210922200042 80 12 13.0 20.0 0.00 0.00 0.00 30 997.6
20210922194532 79 26 5.0 17.0 0.00 0.26 0.00 32 997.9
20210922193048 79 30 8.0 23.0 0.00 0.26 0.00 30 998.2
20210922191530 79 13 10.0 16.0 0.00 0.26 0.00 29 998.5
20210922190033 79 22 15.0 21.0 0.00 0.26 0.00 30 998.9
20210922184627 78 157 6.0 16.0 0.00 0.26 0.00 31 999.1
20210922183109 78 35 11.0 25.0 0.00 0.26 0.00 34 999.5
20210922181555 78 43 9.0 20.0 0.00 0.26 0.00 33 999.6
20210922180047 77 5 12.0 23.0 0.00 0.26 0.00 32 999.8
20210922174509 77 59 8.0 23.0 0.00 0.26 0.26 34 1000.1
20210922173017 77 45 11.0 23.0 0.00 0.26 0.26 34 1000.3
20210922170147 76 29 11.0 23.0 0.00 0.26 0.26 36 1000.9
20210922164628 76 38 12.0 19.0 0.00 0.26 0.26 37 1001.1
20210922163055 75 37 16.0 25.0 0.00 0.26 0.26 38 1001.2
20210922161624 75 60 13.0 24.0 0.00 0.26 0.26 38 1001.5
20210922160011 74 41 13.0 20.0 0.00 0.26 0.26 39 1001.6
20210922154511 73 37 13.0 19.0 0.00 0.26 0.26 42 1001.6
20210922153108 72 61 13.0 19.0 0.00 0.26 0.26 45 1001.6
20210922151625 72 63 13.0 17.0 0.00 0.26 0.26 45 1001.6
20210922150037 71 17 13.0 18.0 0.00 0.26 0.26 48 1001.5
20210922144610 70 57 12.0 19.0 0.00 0.26 0.26 49 1001.4
20210922143017 69 9 13.0 20.0 0.00 0.26 0.26 49 1001.3
20210922141506 68 13 17.0 22.0 0.00 0.26 0.26 49 1001.3
20210922140119 67 9 14.0 18.0 0.00 0.26 0.26 52 1001.1
20210922134650 65 11 12.0 17.0 0.00 0.26 0.26 55 1001.1
20210922133234 63 19 11.0 15.0 0.00 0.26 0.26 59 1001.1
20210922131627 62 11 8.0 13.0 0.00 0.26 0.26 61 1001.2
20210922130129 60 10 8.0 12.0 0.00 0.26 0.26 64 1001.0
20210922124605 59 17 8.0 12.0 0.00 0.26 0.26 65 1001.0
20210922123117 59 16 9.0 12.0 0.00 0.26 0.26 66 1000.8